Flag for USA

Past Weather in Anderson, South Carolina, USA — Yesterday and Last 2 Weeks

Now
79 °F

Sunny.


Feels Like: 82 °F
Forecast: 90 / 72 °F
Wind: 8 mph from Northeast

Location: Anderson County Airport

Current Time: Jul 9, 2020 at 10:53:13 am

Latest Report: Jul 9, 2020 at 9:56 am


Visibility: 10 mi

Pressure: 29.94 "Hg

Humidity: 74%

Dew Point: 70 °F

Location of AndersonLocation

Past Weather in Anderson — Graph

°F

Anderson Temperature Yesterday

Maximum temperature yesterday: 88 °F (at 3:56 pm)
Minimum temperature yesterday: 72 °F (at 5:25 am)
Average temperature yesterday: 78 °F

High & Low Weather Summary for the Past Weeks

 TemperatureHumidityPressure
High93 °F (Jul 2, 3:56 pm)97% (Jul 6, 6:56 pm)30.20 "Hg (Jul 6, 6:56 pm)
Low69 °F (Jun 25, 2:56 am)36% (Jul 2, 3:56 pm)29.82 "Hg (Jul 1, 6:56 pm)
Average78 °F74%29.96 "Hg
* Reported Jun 24 8:12 am — Jul 9 8:56 am, Anderson. Weather by CustomWeather, © 2020

Note: Actual official high and low records may vary slightly from our data, if they occured in-between our weather recording intervals... More about our weather records

Anderson Weather History for the Previous 24 Hours

Scroll right to see more
 ConditionsComfort  
Time TempWeatherWind HumidityBarometerVisibility
8:56 am
Thu, Jul 9
78 °FSunny.7 mph76%29.94 "Hg10 mi
7:56 am76 °FSunny.9 mph82%29.93 "Hg10 mi
6:56 am73 °FSunny.No wind90%29.91 "Hg10 mi
5:56 am73 °FClear.No wind90%29.88 "Hg10 mi
4:56 am74 °FClear.3 mph91%29.87 "Hg10 mi
3:56 am74 °FClear.3 mph91%29.86 "Hg10 mi
2:56 am73 °FClear.3 mph94%29.87 "Hg10 mi
1:56 am74 °FPassing clouds.5 mph94%29.88 "Hg10 mi
12:56 am76 °FClear.3 mph91%29.89 "Hg10 mi
11:56 pm
Wed, Jul 8
77 °FPassing clouds.No wind85%29.90 "Hg10 mi
10:56 pm78 °FPassing clouds.No wind82%29.89 "Hg10 mi
9:56 pm80 °FPartly cloudy.3 mph79%29.89 "Hg10 mi
8:56 pm82 °FPartly cloudy.5 mph74%29.87 "Hg10 mi
7:56 pm82 °FSunny.3 mph77%29.86 "Hg10 mi
6:56 pm85 °FSunny.No wind61%29.85 "Hg10 mi
5:56 pm87 °FSunny.5 mph51%29.84 "Hg10 mi
4:56 pm88 °FPassing clouds.10 mph54%29.85 "Hg10 mi
3:56 pm88 °FScattered clouds.12 mph52%29.87 "Hg10 mi
2:56 pm87 °FBroken clouds.5 mph55%29.89 "Hg10 mi
1:56 pm86 °FScattered clouds.6 mph55%29.92 "Hg10 mi
12:56 pm85 °FPassing clouds.6 mph59%29.95 "Hg10 mi
11:56 am85 °FPassing clouds.8 mph61%29.96 "Hg10 mi
11:10 am80 °FPartly sunny.7 mph71%30.00 "Hg10 mi
10:56 am79 °FPartly sunny.5 mph72%29.97 "Hg10 mi
Weather by CustomWeather, © 2020

See weather overview